Regional Weather Roundup
Issued by NWS Northern Indiana

Home | Current Version | Previous Version | Text Only | Print | Product List | Glossary On
Versions: 1 2 3 4 5 6 7 8 9 10 11 12 13 14 15 16 17 18 19 20 21 22 23 24 25 26 27 28 29 30 31 32 33 34 35 36 37 38 39 40 41 42 43 44 45 46 47 48 49 50
000
ASUS43 KIWX 280910
RWRIWX

KIWX WEATHER ROUNDUP
NATIONAL WEATHER SERVICE NORTHERN INDIANA
500 AM EDT THU AUG 28 2014

NOTE: "FAIR" INDICATES FEW OR NO CLOUDS BELOW 12,000 FEET WITH NO
SIGNIFICANT WEATHER AND/OR OBSTRUCTIONS TO VISIBILITY.

* THESE STATIONS ARE NOT UNDER NWS QUALITY CONTROL. THEY ALSO MAY NOT
  REPORT WEATHER SUCH AS PRECIPITATION OR FOG.

INZ001>027-281000-
NORTHERN INDIANA

CITY           SKY/WX    TMP DP  RH WIND       PRES   REMARKS
GARY*          PTCLDY    68  57  68 NE10      30.13S
VALPARAISO     CLOUDY    61  56  83 NE5       30.13S
MICHIGAN CITY* PTCLDY    55  55 100 CALM      30.14S
LAPORTE*       PTCLDY    60  55  85 NE5       30.14S
KNOX*          CLOUDY    60  57  90 CALM      30.12S
SOUTH BEND     PTCLDY    60  56  86 NE6       30.14F
GOSHEN         PTCLDY    61  57  87 NE6       30.12F
MONTICELLO*    CLEAR     62  61  97 NE6       30.11S
LOGANSPORT*    MOCLDY    63  59  88 N5        30.12S
ROCHESTER*     PTCLDY    63  61  94 CALM      30.12S
WARSAW*        PTCLDY    61  59  94 NE3       30.12S
ANGOLA*        CLEAR     59  57  94 CALM      30.13S
FORT WAYNE     PTCLDY    61  59  93 N3        30.11F
HUNTINGTON*    CLEAR     60  59  96 CALM      30.11S
PERU/GRISSOM   PTCLDY    62  62 100 NE7       30.10S
MARION*        CLEAR     62  59  90 NE5       30.11S

$$
INZ028>050-281000-
CENTRAL INDIANA

CITY           SKY/WX    TMP DP  RH WIND       PRES   REMARKS
LAFAYETTE      PTCLDY    63  61  93 NE5       30.10S
KOKOMO*        CLEAR     63  59  88 NE7       30.10F
MUNCIE*        PTCLDY    63  60  90 CALM      30.10S
INDIANAPOLIS   CLEAR     67  62  84 NE7       30.06F

$$
MIZ043>046-050>051-056>058-064>065-071>073-077>080-281000-
SOUTHWEST LOWER MICHIGAN

CITY           SKY/WX    TMP DP  RH WIND       PRES   REMARKS
BATTLE CREEK   CLEAR     57  51  80 CALM      30.15S
BENTON HARBOR  PTCLDY    57  54  89 NE5       30.14S
COLDWATER*     CLEAR     59  56  90 NE3       30.14R
HILLSDALE*     CLOUDY    60  60 100 CALM      30.14S
HOLLAND        CLEAR     55  52  89 E5        30.17R
GRAND RAPIDS   CLEAR     55  54  96 N6        30.17S
KALAMAZOO      CLEAR     57  51  80 N5        30.15R
STURGIS*       CLEAR     57  55  94 N5        30.13S
THREE RIVERS*  FAIR      59  54  83 CALM      30.15S

$$
OHZ001>008-015>018-024>025-281000-
NORTHWEST OHIO

CITY           SKY/WX    TMP DP  RH WIND       PRES   REMARKS
WAUSEON*       CLOUDY    59  59 100 NE8       30.13R
DEFIANCE       PTCLDY    61  58  90 N5        30.12S
FINDLAY        CLEAR     64  61  90 CALM      30.11R FOG
TOLEDO EXPRESS PTCLDY    61  57  87 NE6       30.12R
TOLEDO METCALF MOCLDY    65  58  78 NE6       30.13R
LIMA           FOG       62  60  93 NE3       30.11S VSB 1/4

$$
&&



USA.gov is the U.S. government's official web portal to all federal, state and local government web resources and services.